STARLINK-1027 (44732 NORAD) Tracking and Keplerian Element Data

This shows tracking and keplerian element data for the satellite.

Feedback or suggestion? Click here.




ElementValue
Catalog44732
NameSTARLINK-1027
Epoch Orbit1143
Epoch Day23.25001157
Epoch Year2020
RAAN170.761
Inclination53.0062
Eccentricity0.0001337
Argument of Perigee74.4301
Mean Anonmoly240.0421
Mean Motion15.44825923
Decay Rate-0.00043825
L11 44732U 19074V 20023.25001157 -.00043825 00000-0 -91653-3 0 9990
L22 44732 53.0062 170.7610 0001337 74.4301 240.0421 15.44825923 11438

Live tracking and technical data element details for STARLINK-1027 (NORAD 44732). STARLINK-1027 can be tracked NOW for your location showing map with azimuth and elevation plus other details from your city location.

Track the satellite on the map from your city or location and see movement details for azimuth, elevation, latitude, longitude, range, height, and movement on the map or in text.







IsCatalogInMostPopularTable: catalog: 44732, numindb: 22
Update: records affected: 1



GetName: 44732 STARLINK-1027

Hit Count: updated at: Fri, 24 Jan 2020 11:49:25 GMT